{"data":{"norad_id":58121,"intl_designator":"2023-162D","name":"STARLINK-30799","alt_names":[],"object_type":"PAYLOAD","status":"ACTIVE","operator":null,"country":"US","launch_date":"2023-10-22","launch_site_code":"AFETR","launch_vehicle":null,"mission":null,"orbit_class":"UNKNOWN","rcs_meters":null,"size_class":null,"mass_kg":null,"dimensions":null,"purposes":["comms"],"wikipedia_slug":null,"has_3d_model":false,"image_url":null,"decayed_at":null,"tle_current":{"epoch":"2026-09-19T23:41:10.453056Z","epoch_age_seconds":184762,"freshness":"STALE","line1":"1 58121U 23162D   26262.98692654  .00000184  00000+0  16202-4 0  9995","line2":"2 58121  43.0049 115.0822 0001743 267.6849  92.3803 15.27584419162027","mean_motion":15.27584419,"eccentricity":0.0001743,"inclination_deg":43.0049,"raan_deg":115.0822,"arg_perigee_deg":267.6849,"mean_anomaly_deg":92.3803,"bstar":1.6202e-5,"rev_number":16202,"period_min":94.266476018567,"perigee_km":481.83996156563,"apogee_km":484.23176642602,"semimajor_km":6861.1728639958,"source":"CELESTRAK","updated_at":"2026-09-21T09:00:33.791104Z"}}}